Date,TemperatureHighF,TemperatureAvgF,TemperatureLowF,DewpointHighF,DewpointAvgF,DewpointLowF,HumidityHigh,HumidityAvg,HumidityLow,PressureMaxIn,PressureMinIn,WindSpeedMaxMPH,WindSpeedAvgMPH,GustSpeedMaxMPH,PrecipitationSumIn
2013-2-1,58.6,40.7,28.2,26.0,20.9,13.3,66,47,22,30.26,30.18,6,1,9,0.00
2013-2-2,57.9,43.9,32.5,31.9,22.5,15.6,76,45,25,30.26,30.21,6,0,8,0.00
2013-2-3,50.1,40.0,32.2,42.2,29.2,17.7,98,68,41,30.21,30.09,6,0,12,0.16
2013-2-4,53.6,39.0,29.0,28.8,20.0,9.1,79,50,27,30.15,30.06,6,0,9,0.00
2013-2-5,56.8,40.6,28.2,25.3,15.3,5.1,54,37,20,30.09,30.00,7,1,11,0.00
2013-2-6,50.4,38.1,26.8,19.9,9.1,-3.5,51,31,19,30.09,29.97,6,1,12,0.00
2013-2-7,52.7,35.8,25.2,26.2,10.1,-5.0,94,39,18,30.09,29.85,13,3,22,0.00
2013-2-8,27.2,22.7,19.4,25.2,18.5,14.7,92,84,70,29.85,29.70,12,5,21,0.00
2013-2-9,36.0,23.2,15.1,21.6,16.6,10.3,92,77,46,29.91,29.73,6,1,12,0.04
2013-2-10,22.5,16.4,12.2,17.0,11.3,7.8,82,80,70,29.91,29.88,0,0,0,0.04
2013-2-11,30.8,23.6,17.4,18.9,6.0,-3.8,85,50,31,30.09,29.91,8,2,20,0.04
2013-2-12,42.1,30.2,18.0,12.8,4.9,-2.5,50,34,28,30.18,30.09,6,1,12,0.04
2013-2-13,49.1,36.1,26.4,18.6,13.4,5.4,65,40,27,30.21,30.15,6,1,12,0.00
2013-2-14,47.1,35.9,24.1,23.8,16.3,11.5,80,47,30,30.21,30.15,7,2,12,0.00
2013-2-15,50.4,40.9,32.5,16.7,9.2,-0.2,48,28,19,30.30,30.18,9,4,15,0.00
2013-2-16,59.1,43.2,29.6,16.8,6.8,-0.6,32,22,17,30.30,30.06,7,1,10,0.00
2013-2-17,52.0,38.8,26.4,17.9,10.8,3.1,51,32,21,30.06,29.94,8,2,15,0.00
2013-2-18,53.2,36.8,23.5,17.3,8.9,-1.2,43,32,21,30.00,29.91,9,2,15,0.00
2013-2-19,45.3,30.8,22.5,27.6,12.6,-4.6,95,54,20,29.91,29.56,10,3,20,0.00
2013-2-20,34.2,23.3,15.4,22.1,17.1,11.6,95,78,58,29.85,29.53,10,2,17,0.00
2013-2-21,35.2,23.3,15.2,16.9,8.8,1.2,84,55,35,29.97,29.85,6,1,14,0.04
2013-2-22,46.2,29.9,15.4,16.6,9.2,0.0,62,42,28,30.12,29.97,6,1,11,0.08
2013-2-23,49.5,35.1,23.7,21.6,14.7,5.0,78,46,26,30.09,29.88,8,2,15,0.00
2013-2-24,33.1,26.1,19.4,4.4,-1.6,-6.5,43,30,23,30.12,29.94,10,4,24,0.00
2013-2-25,50.5,34.9,20.3,14.9,4.7,-6.4,43,28,21,30.12,30.03,7,2,12,0.00
2013-2-26,48.5,35.1,25.2,15.0,5.7,-2.9,42,29,22,30.12,30.00,6,1,11,0.00
2013-2-27,46.4,33.5,21.9,11.4,3.5,-1.1,46,29,21,30.26,30.12,7,1,13,0.00
2013-2-28,50.5,37.4,25.3,16.7,7.3,0.1,34,28,22,30.35,30.24,7,1,15,0.00